CAPE
0 7 219 181 203 497 826 842 1253 1335 1250 1040 1015 1020 1203 1271 1551 1544 1535 1181 975 1154 984 878 1099 920 925 1033 1122 1049 1028 934 879 875 867 850 863 1009 868 608 560 627 963
0 29 133 174 295 606 928 1053 1373 1231 1146 1125 1035 1030 953 1052 1428 1435 1360 1318 1154 1092 1051 842 893 918 1114 1232 1105 1073 1001 879 665 542 700 780 782 872 741 637 606 891 1001
0 66 190 221 244 529 892 1220 1185 1181 1086 1026 960 589 534 795 907 1102 879 908 923 778 907 679 821 1095 1139 1126 1009 976 939 711 603 594 669 708 747 811 774 672 738 912 986
0 62 214 272 272 434 804 973 1038 949 963 800 738 499 617 676 626 502 446 490 625 537 578 553 851 964 1026 907 846 940 987 709 462 539 560 556 606 626 515 752 909 987 926
0 58 159 213 307 360 591 759 910 841 810 662 527 432 706 699 355 113 53 32 364 452 334 447 668 905 879 785 928 1042 806 545 494 470 466 545 716 955 955 897 880 609 637
0 45 66 154 238 273 281 518 707 833 710 674 368 501 713 611 335 287 301 252 136 362 312 279 409 812 760 733 860 833 604 456 567 507 605 684 754 854 841 816 674 567 450
0 23 66 127 160 192 197 252 384 706 665 592 409 423 678 541 239 339 187 164 52 146 271 252 449 357 379 352 473 509 420 450 556 578 586 641 722 796 790 731 671 639 544
0 0 0 1 37 113 112 125 224 494 579 547 406 380 428 642 279 255 101 91 0 117 133 145 28 0 48 256 149 185 183 250 417 441 483 551 483 571 565 458 413 390 358
0 0 0 1 7 28 44 139 204 188 361 502 248 198 225 226 63 86 216 107 50 17 11 136 98 21 5 139 72 69 102 248 379 303 348 281 299 345 330 300 263 214 145
0 0 26 21 206 318 9 1 0 17 205 156 18 40 10 0 0 0 55 119 136 261 154 210 187 190 102 74 41 71 71 106 287 276 235 201 239 203 168 104 50 22 10
3 28 4 31 63 5 10 54 21 30 2 0 0 0 1 3 0 0 9 34 232 216 222 205 76 19 2 7 1 0 7 50 204 182 114 76 64 21 12 6 10 9 6
0 2 0 8 4 9 12 26 4 0 1 0 4 1 3 4 3 1 1 14 190 196 117 25 6 1 0 0 0 0 0 8 30 10 11 8 10 9 6 7 9 10 8
2 0 2 5 4 6 7 6 7 0 0 2 2 2 3 2 1 0 0 0 2 0 0 3 1 0 0 0 0 3 6 7 7 10 12 9 10 8 4 3 5 5 2
0 1 1 7 3 6 1 0 4 0 1 1 2 4 3 0 0 0 0 0 0 0 0 0 0 0 0 0 0 1 5 1 2 3 2 0 6 9 14 1 8 7 6
2 2 2 2 3 0 0 0 0 1 2 2 0 1 1 0 0 0 0 0 0 0 0 0 0 0 0 0 0 5 5 10 5 4 0 0 3 14 9 5 2 7 5
1 2 4 1 4 0 0 0 0 1 1 1 0 0 0 0 0 0 0 0 0 0 0 0 0 0 0 0 0 0 2 8 6 0 0 0 6 10 4 5 10 6 7
0 1 2 1 8 0 0 0 0 1 0 0 0 0 0 0 0 0 0 0 0 0 0 0 0 0 0 0 0 0 0 0 0 0 0 0 0 0 4 5 6 5 7
1 2 1 2 8 2 0 0 0 0 0 0 0 0 0 0 0 0 0 0 0 0 0 0 0 0 0 0 0 0 0 0 0 0 0 0 0 0 2 5 6 6 5
2 1 2 2 4 4 0 0 0 0 0 0 0 0 0 0 0 0 0 0 0 0 0 0 0 0 0 0 0 0 0 0 0 0 0 0 0 0 0 0 0 1 5
5 2 2 3 2 4 0 0 0 0 0 0 0 0 0 0 0 0 0 0 0 0 0 0 0 0 0 0 0 0 0 0 0 0 0 0 0 0 0 0 0 0 2
2 4 4 2 1 0 1 0 0 0 0 0 0 0 0 0 0 0 0 0 0 0 0 0 0 0 0 0 0 0 0 0 0 0 0 0 0 0 0 0 0 0 0
0 10 10 2 1 0 0 0 0 0 0 0 0 0 0 0 0 0 0 0 0 0 0 0 0 0 0 0 0 0 0 0 0 0 0 0 0 0 0 0 0 0 0
3 3 3 2 2 1 1 0 0 0 0 0 0 0 0 0 0 0 0 0 0 0 0 0 0 0 0 0 0 0 0 0 0 0 0 0 0 0 0 0 0 0 0
6 6 4 0 2 1 1 0 0 0 0 0 0 0 0 0 0 0 0 0 0 0 0 0 0 0 0 0 0 0 0 0 0 0 0 0 0 0 0 0 0 0 0
5 7 6 1 1 2 0 0 0 0 0 0 0 0 0 0 0 0 0 0 0 0 0 0 0 0 0 0 0 0 0 0 0 0 0 0 0 0 0 0 0 0 0
3 5 6 2 1 1 1 0 0 0 0 0 0 0 0 0 0 0 0 0 0 0 0 0 0 0 0 0 0 0 0 0 0 0 0 0 0 0 0 0 0 0 0
CIN
0 -151 -216 -183 -155 -89 -41 -23 -1 0 0 0 0 0 0 -2 0 0 0 -2 -8 -4 -3 -2 0 0 -1 0 0 0 0 0 0 0 0 -1 -1 0 0 -5 -2 -1 0
0 -225 -237 -187 -136 -65 -27 -11 0 0 0 0 0 0 -1 -1 0 0 0 0 -1 -2 -1 -4 -3 0 0 0 0 0 0 -1 -4 -9 -5 -3 -1 0 -1 -1 -3 0 0
0 -200 -208 -165 -137 -68 -24 -2 -1 -1 -1 -1 0 -3 -7 -1 -2 -1 -11 -6 -2 -3 -2 -7 0 0 0 -2 0 0 0 -5 -8 -7 -3 -1 0 0 -2 -6 -3 0 0
0 -289 -192 -154 -126 -79 -24 -6 -1 0 0 -3 -1 -6 -7 -11 -18 -34 -41 -43 -13 -6 -6 -6 -1 0 0 0 -1 0 0 -7 -13 -9 -1 -1 -1 -2 -5 -4 0 0 0
0 -264 -188 -156 -108 -78 -34 -8 -1 0 0 -2 -3 -7 -4 -21 -42 -90 -116 -163 -65 -21 -11 -3 -5 -1 0 -2 0 0 -2 -10 -11 -2 0 -1 0 0 0 0 0 -5 -1
0 -267 -231 -160 -116 -80 -56 -19 -3 0 -1 0 -13 -3 -7 -15 -41 -51 -76 -104 -84 -55 -13 -4 -4 0 0 0 0 0 -6 -10 -2 0 0 -1 0 0 0 0 -1 -1 -3
0 -268 -220 -165 -119 -93 -78 -50 -9 0 0 -2 -5 -8 0 -9 -35 -34 -68 -65 -91 -58 -14 0 0 -11 -2 -9 -3 -9 -13 -10 0 0 0 0 0 0 0 0 0 0 0
0 0 0 -41 -201 -115 -96 -69 -15 0 0 -2 -2 -10 -6 0 -6 -11 -47 -56 0 -44 -17 -21 -24 -39 -17 0 -5 -16 -26 -16 -1 0 0 0 0 0 0 0 0 0 0
0 0 0 -55 -225 -143 -100 -55 -20 -27 -2 0 -14 -20 -8 -2 -49 -36 0 -12 -33 -1 -10 -8 -2 -4 -1 -7 -19 -40 -41 -17 -16 -1 -4 -3 0 -5 0 0 0 0 -1
0 0 -186 -186 -73 -43 -1 -4 0 -208 -7 -19 -98 -47 -46 0 0 0 -56 -25 0 0 0 0 0 0 0 -14 -37 -67 -68 -39 0 0 -1 0 0 0 0 0 -8 -26 0
0 -135 0 -170 -65 0 -1 -90 -133 -168 -112 0 0 0 -1 0 0 0 -118 -69 -11 0 0 0 -3 -11 0 -69 -37 -11 -64 -30 0 0 0 0 -2 -11 -17 0 0 0 0
0 0 0 -184 -1 0 0 -84 0 0 -3 -6 0 0 0 0 0 -48 0 -8 0 0 -7 -1 0 0 0 0 0 0 -34 -22 -13 -32 -9 0 0 0 0 0 0 0 0
0 0 0 0 -1 0 0 -1 0 0 0 0 0 0 0 0 0 0 0 0 0 0 0 0 0 0 0 0 0 0 -1 -4 -2 0 -4 0 0 0 0 0 0 0 0
0 0 0 0 0 0 -20 0 -7 0 0 0 0 0 0 0 0 0 0 0 0 0 0 0 0 0 0 0 0 0 -1 -1 0 0 -1 -1 -1 -1 0 0 0 -1 -1
0 0 0 0 -1 0 0 0 0 0 0 0 0 0 0 0 0 0 0 0 0 0 0 0 0 0 0 0 0 -1 0 0 0 0 0 0 -2 0 -1 0 -1 0 -1
0 0 0 -1 0 0 0 0 0 0 0 0 0 0 0 0 0 0 0 0 0 0 0 0 0 0 0 0 0 0 -1 -1 0 -1 0 0 -8 -1 -1 0 -1 -1 0
0 0 0 0 0 0 0 0 0 0 0 0 0 0 0 0 0 0 0 0 0 0 0 0 0 0 0 0 0 0 0 0 0 0 0 0 -2 -3 -1 0 0 0 0
0 0 0 0 0 0 0 0 0 0 0 -1 0 0 0 0 0 0 0 0 0 0 0 0 0 0 0 0 0 0 0 0 0 0 0 0 0 0 0 0 0 -1 -1
0 0 0 0 0 0 0 0 0 0 0 0 0 0 0 0 0 0 0 0 0 0 0 0 0 0 0 0 0 0 0 0 0 0 0 0 0 0 0 0 0 -1 0
0 -2 -1 0 0 0 0 0 0 0 0 0 0 0 0 0 0 0 0 0 0 0 0 0 0 0 0 0 0 0 0 0 0 0 0 0 0 0 0 0 0 0 0
-3 -4 0 0 0 0 0 0 0 0 0 0 0 0 0 0 0 0 0 0 0 0 0 0 0 0 0 0 0 0 0 0 0 0 0 0 0 0 0 0 0 0 0
0 -6 -5 0 0 0 0 0 0 0 0 0 0 0 0 0 0 0 0 0 0 0 0 0 0 0 0 0 0 0 0 0 0 0 0 0 0 0 0 0 0 0 0
0 0 0 0 0 0 0 0 0 0 0 0 0 0 0 0 0 0 0 0 0 0 0 0 0 0 0 0 0 0 0 0 0 0 0 0 0 0 0 0 0 0 0
0 0 0 0 0 0 0 0 0 0 0 0 0 0 0 0 0 0 0 0 0 0 0 0 0 0 0 0 0 0 0 0 0 0 0 0 0 0 0 0 0 0 0
0 0 0 0 0 0 0 0 0 0 0 0 0 0 0 0 0 0 0 0 0 0 0 0 0 0 0 0 0 0 0 0 0 0 0 0 0 0 0 0 0 0 0
0 0 0 0 -25 0 0 0 0 0 0 0 0 0 0 0 0 0 0 0 0 0 0 0 0 0 0 0 0 0 0 0 0 0 0 0 0 0 0 0 0 0 0
Wind_Speed
5 6 7 7 7 6 6 5 5 4 4 6 6 5 5 4 5 7 8 9 10 10 9 4 2 3 1 1 2 3 5 6 8 9 8 9 9 11 12 13 13 13 13
7 6 6 6 6 5 5 5 4 5 5 6 5 4 5 5 6 7 9 10 13 15 12 8 3 3 2 1 2 4 5 6 7 9 9 8 9 10 11 12 13 12 12
7 6 5 6 5 5 6 4 5 5 5 5 7 6 6 8 6 8 10 13 20 20 16 11 5 4 3 2 3 5 6 7 8 10 10 9 9 10 10 11 13 13 12
6 5 5 5 4 4 5 8 5 5 5 5 7 6 7 6 6 9 9 15 20 24 22 12 8 6 5 4 4 6 7 7 8 9 6 7 9 10 11 12 12 13 14
6 4 4 4 4 4 5 7 7 6 5 6 6 7 5 5 5 9 11 14 14 26 26 14 9 8 7 6 6 7 7 7 5 3 5 6 6 9 11 11 12 13 13
4 4 4 2 3 5 5 5 6 5 5 7 7 7 4 2 5 8 11 16 21 27 28 16 9 9 9 7 8 8 8 7 4 3 3 4 5 7 8 8 8 9 10
3 4 3 4 4 5 4 4 4 5 6 8 8 6 3 2 3 3 7 13 25 28 26 16 10 10 9 8 8 9 8 6 4 4 4 4 5 8 8 8 7 7 7
5 5 6 5 5 4 5 3 3 4 6 8 9 6 4 2 5 6 8 24 24 34 31 21 14 9 6 6 7 6 8 6 4 6 4 4 6 7 7 6 7 7 7
7 7 7 7 6 5 5 6 6 6 6 7 11 7 4 9 9 9 21 17 22 13 35 28 21 13 9 8 6 4 5 5 6 7 5 5 6 8 10 10 10 10 9
9 10 10 8 6 6 7 11 11 8 6 7 11 7 5 7 15 18 10 9 10 12 11 16 15 14 10 6 6 7 8 10 7 7 6 7 9 9 8 8 8 8 8
11 10 9 8 7 7 11 10 9 8 8 8 9 7 6 7 14 18 9 9 6 10 14 12 12 11 12 8 8 10 11 10 7 7 6 8 7 6 6 6 6 5 5
12 10 9 8 8 8 8 7 8 8 8 9 8 7 7 6 7 15 13 10 16 13 14 11 10 9 6 9 15 14 13 10 8 7 4 6 5 5 5 5 5 4 5
11 11 10 9 8 7 7 7 8 9 9 10 8 5 5 5 8 6 12 5 17 12 8 6 7 5 7 13 13 10 7 6 5 5 3 4 4 3 3 4 4 5 6
14 13 11 9 9 9 8 8 8 8 9 8 7 6 4 4 4 3 3 4 5 12 9 7 7 6 9 11 12 8 6 5 5 3 1 1 2 3 4 4 4 5 6
14 14 13 11 9 8 8 8 7 7 8 6 5 6 6 4 1 5 0 5 12 5 6 8 6 7 9 7 8 7 5 4 5 3 2 2 2 4 4 4 5 6 6
17 16 14 12 10 8 8 9 8 7 6 5 4 4 4 3 2 3 7 9 7 5 6 8 7 7 11 9 9 6 4 3 4 3 3 3 4 4 5 5 6 7 7
22 19 17 14 11 9 9 8 8 8 7 6 6 5 3 2 2 2 4 7 6 5 10 9 7 9 9 9 8 7 4 4 4 4 5 5 4 6 6 6 7 7 8
25 22 19 17 13 11 10 10 10 8 7 6 4 3 2 1 2 2 3 6 7 7 11 9 10 9 8 7 7 7 6 5 3 5 5 5 6 6 7 8 8 8 9
28 27 23 20 17 14 12 12 10 8 7 6 3 2 1 2 3 3 3 5 8 8 10 11 11 10 7 7 6 5 7 7 7 7 7 7 9 9 8 9 9 10 10
31 30 27 23 20 17 14 13 11 10 9 7 5 3 2 2 4 6 6 6 8 10 10 10 10 9 7 6 5 5 7 9 9 10 9 10 10 10 9 9 10 10 11
35 31 29 26 24 21 19 17 16 14 13 11 9 6 5 4 4 4 5 7 7 8 10 9 9 9 8 7 6 7 9 11 11 11 12 12 11 11 11 11 11 11 11
31 32 30 29 27 26 23 20 19 15 15 14 12 10 9 7 6 6 6 6 7 7 8 9 9 10 9 8 11 9 14 15 15 15 14 13 13 12 12 13 13 12 12
31 33 33 30 28 28 25 22 19 17 16 17 16 14 11 10 9 8 7 7 7 8 8 9 9 10 13 15 12 14 15 18 13 16 16 15 15 15 13 13 14 14 14
33 34 36 36 29 29 27 26 25 24 22 21 19 17 16 13 12 11 10 9 9 10 10 9 9 9 9 11 12 14 14 13 17 18 18 16 15 15 15 15 15 15 15
32 32 33 37 31 30 30 30 28 27 24 21 21 20 19 18 14 13 13 12 12 13 11 12 12 11 11 12 14 13 13 14 14 16 19 18 18 18 17 15 15 15 16
30 29 29 30 30 29 31 31 30 29 27 25 24 24 22 20 19 17 16 15 14 14 14 14 14 13 13 13 14 14 14 16 15 15 17 16 18 19 18 19 19 18 17
Wind_Direction
30 51 104 98 97 87 51 55 24 35 12 350 341 335 336 331 316 304 297 287 276 266 264 244 191 256 291 64 51 52 63 66 73 77 76 82 84 86 88 88 84 82 81
43 72 99 99 89 80 52 52 35 19 14 349 352 347 335 323 311 301 294 286 270 260 257 250 196 217 235 204 91 80 75 78 81 82 81 84 87 89 91 88 85 84 81
29 67 93 99 82 75 26 52 24 21 22 359 344 343 332 317 311 296 290 281 264 256 254 245 202 198 205 166 115 100 92 91 92 90 87 83 87 92 93 90 89 86 84
23 65 88 94 76 49 28 1 22 13 5 354 340 337 326 322 314 296 294 274 264 253 250 240 213 196 177 155 131 114 106 102 100 96 87 88 88 92 94 93 89 86 83
10 38 55 88 37 20 7 8 5 5 8 355 335 325 319 316 300 292 286 279 281 251 247 236 184 183 164 150 136 122 118 116 117 116 99 101 98 94 91 90 88 87 85
9 20 17 48 8 3 13 15 3 13 12 340 333 328 326 304 288 286 295 288 263 248 242 235 179 161 154 154 139 128 125 121 126 124 129 126 111 100 95 91 86 82 80
342 345 4 345 346 352 13 23 15 14 357 339 334 325 318 261 265 256 296 286 253 246 239 220 175 147 144 143 137 130 127 130 130 159 151 149 116 100 95 91 87 81 74
322 324 326 326 334 343 354 25 44 21 354 340 331 330 323 219 191 188 276 265 265 247 235 206 180 184 176 153 168 144 126 129 127 191 164 149 118 102 95 94 84 80 74
307 307 314 320 331 340 347 348 353 0 4 349 324 329 344 315 315 306 268 275 257 172 228 145 135 147 144 132 182 202 127 141 163 191 170 156 110 98 88 84 82 76 73
293 298 303 309 322 338 343 324 328 347 4 353 335 346 353 335 306 295 291 273 229 113 170 124 120 116 134 145 115 127 146 182 167 165 156 121 102 93 86 78 73 67 61
280 289 296 303 313 323 322 330 344 9 20 14 3 3 357 334 324 309 195 202 240 162 146 130 117 120 111 126 146 170 171 183 162 157 149 108 95 86 77 65 55 50 40
270 279 284 292 302 318 325 341 341 349 356 359 7 8 1 5 351 22 16 213 178 178 141 128 127 124 159 175 191 188 188 189 185 179 168 104 90 72 62 47 35 25 12
269 275 277 281 291 305 310 318 326 326 339 347 6 11 6 3 301 329 31 116 186 164 146 150 163 137 155 179 196 193 167 174 169 174 160 97 69 36 359 345 335 333 333
266 269 272 273 280 293 296 303 315 321 332 342 9 48 44 16 312 317 245 228 171 153 151 168 171 130 161 195 202 187 174 177 196 189 192 61 22 2 351 341 350 342 339
262 261 263 264 273 281 286 292 305 317 323 344 2 28 61 57 3 265 146 198 219 192 146 158 147 154 167 177 198 193 184 158 199 210 247 3 330 342 336 346 345 344 343
261 258 258 257 265 271 275 279 291 303 316 316 328 348 9 50 79 240 237 229 236 217 203 193 181 182 204 202 199 202 188 174 210 219 253 306 319 328 322 335 339 341 340
261 257 253 252 258 262 266 269 281 287 292 296 304 315 335 25 72 152 224 231 223 213 189 195 192 202 205 210 206 213 206 220 233 244 258 274 300 313 319 327 332 335 340
259 253 250 250 250 254 255 260 272 273 279 285 297 322 344 340 121 142 201 207 198 197 199 196 200 198 210 209 215 225 233 241 249 253 261 277 291 304 317 319 324 328 335
258 255 249 246 243 246 248 253 259 258 264 268 271 282 60 94 107 129 154 161 176 172 189 202 208 209 203 211 219 229 244 249 254 257 265 276 283 292 302 314 321 321 324
260 257 251 247 242 241 241 245 251 252 256 254 249 244 162 127 116 118 129 138 160 184 195 203 204 215 212 200 209 233 253 256 258 261 270 274 282 291 300 303 309 315 319
259 256 249 244 239 239 238 236 243 243 245 244 245 234 222 191 173 155 141 141 159 193 206 206 207 201 210 195 214 242 261 262 266 271 275 277 284 294 297 297 303 306 315
267 258 251 245 239 237 238 238 243 236 242 239 238 235 236 221 211 212 189 173 164 172 193 204 201 215 217 221 242 246 253 261 266 270 275 280 284 290 293 294 296 303 306
273 266 261 245 238 236 237 235 237 240 236 237 235 233 229 226 220 215 206 203 200 200 191 192 202 208 226 245 233 262 258 261 258 271 273 278 281 284 293 294 294 297 300
279 272 263 259 237 235 231 233 228 231 232 235 230 232 230 225 224 226 222 221 218 223 215 212 212 227 218 233 245 271 275 274 265 268 273 278 284 284 286 289 294 296 300
282 278 269 263 237 237 232 233 231 234 235 232 229 227 228 231 229 230 231 229 230 233 227 229 232 232 237 241 249 260 275 276 277 277 272 274 279 282 287 293 296 300 302
286 282 276 266 243 236 236 233 231 231 232 230 228 226 227 229 234 234 233 237 235 236 237 238 240 242 240 245 254 261 269 273 273 281 284 279 279 282 286 288 291 295 299